GW2923 Weather Reports


Display with metric or nautical units.
time (UTC)temp
F
wind
direction
speed
MPH
gust
MPH
rain 1hr
in
rain 24hr
in
rain mn
in
humidity
%
barometer
mb
20260831214033 58 214 1.0 9.0 0.00 0.59 0.00 92 1005.2
20260831213533 58 241 2.0 9.0 0.00 0.59 0.00 92 1005.2
20260831213049 58 294 3.0 11.0 0.00 0.59 0.00 92 1005.2
20260831212530 58 272 5.0 11.0 0.00 0.59 0.00 92 1005.1
20260831212036 58 238 5.0 11.0 0.00 0.59 0.00 93 1005.1
20260831211548 58 243 3.0 9.0 0.00 0.59 0.00 93 1005.1
20260831211031 58 215 4.0 12.0 0.00 0.59 0.00 93 1005.0
20260831210532 58 243 6.0 12.0 0.00 0.59 0.00 93 1004.9
20260831210052 58 245 4.0 9.0 0.00 0.59 0.00 93 1005.0
20260831205529 58 234 3.0 9.0 0.00 0.59 0.59 94 1005.0
20260831205030 58 251 3.0 8.0 0.00 0.59 0.59 94 1005.0
20260831204551 58 245 2.0 8.0 0.00 0.59 0.59 94 1005.0
20260831204030 58 229 3.0 9.0 0.00 0.59 0.59 94 1005.0
20260831203532 58 247 4.0 10.0 0.00 0.59 0.59 94 1005.0
20260831203054 58 236 3.0 11.0 0.00 0.59 0.59 94 1004.9
20260831202531 58 229 3.0 11.0 0.00 0.59 0.59 94 1004.8
20260831202030 58 214 4.0 10.0 0.00 0.59 0.59 93 1004.9
20260831201554 59 234 5.0 10.0 0.00 0.59 0.59 93 1004.9
20260831201033 59 217 5.0 10.0 0.00 0.59 0.59 93 1004.8
20260831200530 59 234 5.0 10.0 0.00 0.59 0.59 93 1004.9
20260831200053 59 245 4.0 9.0 0.00 0.59 0.59 93 1004.8
20260831195534 59 228 5.0 9.0 0.00 0.59 0.59 93 1004.7
20260831195033 59 257 5.0 9.0 0.00 0.59 0.59 93 1004.7
20260831194634 59 236 3.0 10.0 0.00 0.59 0.59 93 1004.8
20260831194034 60 247 4.0 10.0 0.00 0.59 0.59 92 1004.7
20260831193532 60 242 4.0 9.0 0.00 0.59 0.59 92 1004.6
20260831193049 60 247 3.0 8.0 0.00 0.59 0.59 92 1004.7
20260831192531 60 223 3.0 9.0 0.00 0.59 0.59 93 1004.6
20260831192032 60 243 5.0 9.0 0.00 0.59 0.59 93 1004.5
20260831191543 60 255 4.0 9.0 0.00 0.59 0.59 93 1004.6
20260831191036 60 224 4.0 8.0 0.00 0.59 0.59 93 1004.5
20260831190530 60 216 4.0 8.0 0.00 0.59 0.59 93 1004.5
20260831190047 60 219 3.0 8.0 0.00 0.59 0.59 93 1004.4
20260831185535 60 230 3.0 8.0 0.00 0.59 0.59 93 1004.4
20260831185029 60 192 3.0 7.0 0.00 0.59 0.59 93 1004.4
20260831184558 60 222 2.0 5.0 0.00 0.59 0.59 93 1004.4
20260831184032 60 259 2.0 5.0 0.00 0.59 0.59 93 1004.3
20260831183529 60 226 2.0 7.0 0.00 0.59 0.59 93 1004.4
20260831183048 60 237 3.0 8.0 0.00 0.59 0.59 93 1004.3
20260831182533 60 236 3.0 8.0 0.00 0.59 0.59 93 1004.4
20260831182033 60 227 3.0 7.0 0.00 0.59 0.59 93 1004.3
20260831181550 61 211 3.0 7.0 0.00 0.59 0.59 93 1004.3
20260831181032 60 240 3.0 7.0 0.00 0.59 0.59 93 1004.2
20260831180530 61 255 3.0 8.0 0.00 0.59 0.59 93 1004.2
20260831180054 61 236 3.0 8.0 0.00 0.59 0.59 93 1004.2
20260831175534 61 249 2.0 7.0 0.00 0.59 0.59 93 1004.2
20260831175033 61 232 2.0 7.0 0.00 0.59 0.59 93 1004.1
20260831174551 61 243 3.0 7.0 0.00 0.59 0.59 92 1004.1
20260831174033 61 220 3.0 6.0 0.00 0.59 0.59 92 1004.1
20260831173530 61 236 3.0 7.0 0.00 0.59 0.59 92 1004.0
20260831173051 61 216 3.0 7.0 0.00 0.59 0.59 92 1003.9
20260831172533 62 224 3.0 7.0 0.00 0.59 0.59 91 1003.9
20260831172034 62 242 3.0 7.0 0.00 0.59 0.59 91 1003.8
20260831171558 62 257 2.0 7.0 0.00 0.59 0.59 91 1003.9
20260831171033 63 218 3.0 8.0 0.00 0.59 0.59 91 1003.9
20260831170533 63 245 3.0 8.0 0.00 0.59 0.59 91 1003.8
20260831170114 63 220 4.0 8.0 0.00 0.59 0.59 91 1003.8
20260831165531 63 271 4.0 9.0 0.00 0.59 0.59 91 1003.8
20260831165033 63 261 4.0 9.0 0.00 0.59 0.59 91 1003.7
20260831164548 63 214 4.0 9.0 0.00 0.59 0.59 92 1003.7
20260831164031 63 201 1.0 5.0 0.00 0.59 0.59 92 1003.7
20260831163534 63 180 2.0 5.0 0.00 0.59 0.59 92 1003.7
20260831163044 63 219 2.0 5.0 0.00 0.59 0.59 92 1003.7
20260831162529 63 226 2.0 4.0 0.00 0.59 0.59 92 1003.6
20260831162031 63 0 0.0 2.0 0.00 0.59 0.59 92 1003.5
20260831161549 64 230 0.0 3.0 0.00 0.59 0.59 91 1003.4
20260831161033 64 0 1.0 3.0 0.00 0.59 0.59 90 1003.4
20260831160531 64 226 1.0 4.0 0.00 0.59 0.59 90 1003.4
20260831160050 64 0 0.0 4.0 0.00 0.59 0.59 90 1003.5
20260831155531 65 220 1.0 3.0 0.00 0.59 0.59 90 1003.4
20260831155032 65 230 0.0 3.0 0.00 0.59 0.59 91 1003.4
20260831154608 64 0 1.0 3.0 0.00 0.59 0.59 90 1003.4
20260831154031 64 0 0.0 0.0 0.00 0.59 0.59 90 1003.4
20260831153535 64 0 0.0 0.0 0.00 0.59 0.59 91 1003.4
20260831153048 64 0 0.0 2.0 0.00 0.59 0.59 90 1003.4
20260831152533 64 0 0.0 2.0 0.00 0.59 0.59 89 1003.4
20260831152035 64 0 1.0 3.0 0.00 0.59 0.59 89 1003.4
20260831151555 64 0 0.0 3.0 0.00 0.59 0.59 89 1003.4
20260831151035 65 247 0.0 3.0 0.00 0.59 0.59 88 1003.4
20260831150533 64 247 0.0 3.0 0.00 0.59 0.59 91 1003.4
20260831150052 64 0 0.0 3.0 0.00 0.59 0.59 91 1003.4
20260831145535 64 247 1.0 3.0 0.00 0.59 0.59 88 1003.4
20260831145031 64 0 1.0 4.0 0.00 0.59 0.59 89 1003.4
20260831144621 65 0 1.0 4.0 0.00 0.59 0.59 88 1003.4
20260831144033 65 255 1.0 4.0 0.00 0.59 0.59 89 1003.4
20260831143536 64 243 1.0 4.0 0.00 0.59 0.59 90 1003.4
20260831143043 65 243 1.0 6.0 0.00 0.59 0.59 88 1003.4
20260831142532 65 243 3.0 6.0 0.00 0.59 0.59 88 1003.4
20260831142030 65 267 2.0 6.0 0.00 0.59 0.59 90 1003.4
20260831141554 64 238 2.0 6.0 0.00 0.59 0.59 90 1003.4
20260831141029 64 225 3.0 6.0 0.00 0.59 0.59 90 1003.5
20260831140529 64 262 2.0 5.0 0.00 0.59 0.59 92 1003.3
20260831140052 64 0 0.0 0.0 0.00 0.59 0.59 92 1003.3
20260831135530 63 0 0.0 4.0 0.01 0.59 0.59 92 1003.3
20260831135032 63 0 0.0 4.0 0.02 0.59 0.59 92 1003.2
20260831134554 63 234 1.0 4.0 0.02 0.59 0.59 92 1003.3
20260831134029 63 0 0.0 0.0 0.03 0.59 0.59 93 1003.3
20260831133529 63 0 0.0 0.0 0.03 0.59 0.59 92 1003.3
20260831133052 63 0 0.0 0.0 0.03 0.59 0.59 93 1003.2
20260831132529 63 0 0.0 0.0 0.03 0.59 0.59 93 1003.3
20260831132032 63 0 0.0 0.0 0.09 0.59 0.59 93 1003.3
20260831131550 63 0 0.0 0.0 0.16 0.59 0.59 93 1003.3
20260831131031 63 0 0.0 1.0 0.25 0.59 0.59 93 1003.3
20260831130534 62 0 0.0 1.0 0.26 0.59 0.59 93 1003.3
20260831130051 62 0 0.0 1.0 0.37 0.58 0.58 93 1003.3
20260831125532 62 0 0.0 0.0 0.52 0.57 0.57 93 1003.3
20260831125031 62 0 0.0 0.0 0.51 0.56 0.56 93 1003.3
20260831124556 62 0 0.0 0.0 0.51 0.56 0.56 94 1003.4
20260831124030 62 0 0.0 0.0 0.51 0.55 0.55 93 1003.3
20260831123530 61 0 0.0 2.0 0.51 0.55 0.55 93 1003.3
20260831123043 61 0 0.0 3.0 0.51 0.55 0.55 93 1003.3
20260831122530 61 0 1.0 6.0 0.49 0.54 0.54 93 1003.3
20260831122036 61 0 1.0 6.0 0.44 0.49 0.49 92 1003.4
20260831121550 61 175 3.0 6.0 0.37 0.41 0.41 92 1003.5
20260831121034 62 191 0.0 7.0 0.28 0.33 0.33 92 1003.3
20260831120531 62 223 0.0 7.0 0.27 0.32 0.32 91 1003.3
20260831120046 63 245 3.0 9.0 0.13 0.18 0.18 90 1003.4
20260831115531 63 282 3.0 9.0 0.00 0.04 0.04 89 1003.2
20260831115036 64 0 3.0 8.0 0.00 0.04 0.04 89 1003.1
20260831114557 65 278 2.0 7.0 0.00 0.04 0.04 88 1003.1
20260831114034 65 0 2.0 8.0 0.00 0.04 0.04 88 1003.2
20260831113530 65 214 3.0 8.0 0.00 0.04 0.04 87 1003.2
20260831113057 65 193 2.0 8.0 0.00 0.04 0.04 88 1003.2
20260831112533 65 197 4.0 8.0 0.00 0.04 0.04 88 1003.2
20260831112034 65 185 2.0 7.0 0.00 0.04 0.04 89 1003.2
20260831111554 64 210 3.0 7.0 0.00 0.04 0.04 89 1003.2
20260831111031 64 172 2.0 6.0 0.00 0.04 0.04 89 1003.2
20260831110532 64 228 2.0 5.0 0.00 0.04 0.04 91 1003.1
20260831110045 63 187 1.0 9.0 0.00 0.04 0.04 92 1003.1
20260831105531 63 0 2.0 12.0 0.00 0.37 0.04 91 1003.1
20260831105035 64 155 3.0 12.0 0.00 0.37 0.04 89 1003.1
20260831104546 64 122 2.0 7.0 0.00 0.37 0.04 88 1003.1
20260831104032 65 179 2.0 7.0 0.00 0.37 0.04 89 1003.0
20260831103533 65 130 1.0 5.0 0.00 0.37 0.04 89 1003.0
20260831103051 65 179 2.0 6.0 0.00 0.37 0.04 89 1003.1
20260831102530 64 180 2.0 6.0 0.00 0.37 0.04 89 1003.0
20260831102031 64 189 2.0 7.0 0.00 0.37 0.04 89 1003.0
20260831101551 64 187 3.0 7.0 0.00 0.37 0.04 88 1003.0
20260831101031 64 176 3.0 7.0 0.00 0.37 0.04 87 1003.0
20260831100533 64 219 3.0 9.0 0.00 0.37 0.04 88 1003.0
20260831100111 65 216 2.0 9.0 0.00 0.37 0.04 88 1003.1
20260831095533 65 178 3.0 10.0 0.00 0.37 0.04 88 1003.0
20260831095033 65 176 4.0 11.0 0.00 0.37 0.04 89 1003.1
20260831094553 65 207 6.0 11.0 0.00 0.37 0.04 88 1003.0
20260831094032 65 211 5.0 10.0 0.00 0.37 0.04 88 1003.0
20260831093536 65 176 3.0 10.0 0.00 0.37 0.04 89 1003.0
20260831093051 65 179 4.0 10.0 0.00 0.37 0.04 89 1002.9
20260831092534 65 196 4.0 9.0 0.00 0.37 0.04 90 1003.0
20260831092030 65 167 3.0 9.0 0.00 0.37 0.04 89 1002.9
20260831091601 64 168 3.0 8.0 0.00 0.37 0.04 91 1002.9
20260831091032 64 195 3.0 8.0 0.00 0.37 0.04 92 1002.9
20260831090532 63 163 3.0 8.0 0.00 0.37 0.04 92 1003.0
20260831090047 62 178 3.0 8.0 0.00 0.37 0.04 93 1002.8
20260831085533 62 197 2.0 8.0 0.00 0.37 0.04 93 1002.9
20260831085032 62 168 3.0 8.0 0.00 0.37 0.04 93 1003.0
20260831084632 62 182 2.0 7.0 0.00 0.37 0.04 93 1003.0
20260831084033 62 193 2.0 7.0 0.00 0.37 0.04 94 1003.0
20260831083531 61 187 2.0 9.0 0.00 0.37 0.04 93 1003.1
20260831083054 61 200 2.0 11.0 0.00 0.37 0.04 94 1003.0
20260831082533 61 177 4.0 11.0 0.00 0.37 0.04 94 1003.0
20260831082034 61 180 3.0 10.0 0.00 0.37 0.04 94 1003.1
20260831081550 61 197 1.0 5.0 0.00 0.37 0.04 94 1002.9
20260831081030 61 164 2.0 7.0 0.00 0.37 0.04 94 1003.0
20260831080530 61 176 2.0 8.0 0.00 0.37 0.04 94 1003.0
20260831080046 61 180 3.0 12.0 0.00 0.37 0.04 93 1002.9
20260831075535 61 231 2.0 12.0 0.00 0.37 0.04 93 1002.9
20260831075032 61 114 4.0 11.0 0.00 0.37 0.03 93 1003.0
20260831074603 61 204 3.0 10.0 0.00 0.37 0.03 94 1003.0
20260831074030 61 184 3.0 10.0 0.00 0.37 0.03 94 1003.0
20260831073530 61 159 3.0 10.0 0.00 0.37 0.03 94 1002.9
20260831073050 61 178 2.0 10.0 0.00 0.37 0.03 94 1002.9
20260831072535 61 222 4.0 10.0 0.00 0.37 0.03 94 1003.0
20260831072033 61 176 3.0 8.0 0.00 0.37 0.03 94 1002.9
20260831071601 61 157 2.0 7.0 0.00 0.37 0.03 94 1003.0
20260831071034 61 149 2.0 8.0 0.00 0.37 0.03 94 1003.0
20260831070534 60 174 1.0 8.0 0.00 0.37 0.03 94 1003.0
20260831070055 61 184 2.0 8.0 0.00 0.37 0.03 94 1003.0
20260831065534 61 161 2.0 8.0 0.00 0.37 0.03 94 1003.0
20260831065033 61 139 3.0 9.0 0.00 0.36 0.03 93 1002.9
20260831064544 61 161 2.0 9.0 0.00 0.36 0.03 93 1002.9
20260831064033 61 144 2.0 11.0 0.00 0.36 0.03 94 1003.0
20260831063533 61 148 4.0 11.0 0.00 0.36 0.03 93 1002.8
20260831063052 61 159 2.0 10.0 0.00 0.36 0.03 94 1002.9
20260831062533 61 145 4.0 10.0 0.00 0.36 0.03 94 1002.9
20260831062035 60 137 4.0 9.0 0.00 0.36 0.03 94 1002.9
20260831061551 60 151 4.0 9.0 0.00 0.36 0.03 94 1002.9
20260831061034 60 118 2.0 9.0 0.00 0.36 0.03 94 1002.9
20260831060533 60 176 2.0 8.0 0.00 0.36 0.03 95 1002.9
20260831055532 60 112 3.0 9.0 0.00 0.36 0.03 95 1003.0
20260831055033 60 97 3.0 9.0 0.00 0.36 0.03 95 1003.0
20260831054554 59 83 2.0 8.0 0.00 0.36 0.03 95 1003.0
20260831054034 59 120 2.0 8.0 0.00 0.35 0.02 95 1003.0
20260831053533 59 117 2.0 7.0 0.00 0.35 0.02 95 1003.0
20260831053104 59 132 2.0 6.0 0.00 0.35 0.02 95 1003.1
20260831052534 59 102 2.0 6.0 0.00 0.35 0.02 95 1003.1
20260831052033 59 86 2.0 6.0 0.00 0.35 0.02 95 1003.1
20260831051549 59 72 2.0 6.0 0.00 0.35 0.02 95 1003.3
20260831051034 58 92 2.0 4.0 0.00 0.35 0.02 95 1003.4
20260831050536 58 80 1.0 4.0 0.00 0.35 0.02 95 1003.3
20260831050105 58 110 1.0 5.0 0.00 0.35 0.02 95 1003.3
20260831045531 58 105 2.0 5.0 0.00 0.37 0.02 95 1003.3
20260831045033 58 138 2.0 4.0 0.00 0.37 0.02 95 1003.2
20260831044553 58 99 1.0 4.0 0.00 0.37 0.02 94 1003.3
20260831044034 58 145 1.0 4.0 0.00 0.37 0.02 94 1003.3
20260831043530 58 107 1.0 4.0 0.00 0.37 0.02 94 1003.4
20260831043050 58 91 0.0 4.0 0.00 0.37 0.02 94 1003.4
20260831042531 58 0 1.0 5.0 0.00 0.37 0.02 94 1003.4
20260831042036 58 95 1.0 5.0 0.00 0.37 0.02 94 1003.5
20260831041608 58 102 2.0 6.0 0.00 0.37 0.02 94 1003.5
20260831041033 58 96 2.0 6.0 0.00 0.37 0.02 94 1003.5
20260831040531 58 97 1.0 5.0 0.00 0.37 0.02 94 1003.6
20260831040043 58 130 2.0 5.0 0.00 0.36 0.01 94 1003.5
20260831035529 58 139 2.0 6.0 0.00 0.36 0.01 94 1003.6
20260831035032 58 91 2.0 6.0 0.00 0.36 0.01 94 1003.6
20260831034555 58 107 2.0 7.0 0.00 0.36 0.01 94 1003.6
20260831034033 58 0 2.0 8.0 0.00 0.36 0.01 94 1003.7
20260831033534 58 151 3.0 8.0 0.00 0.36 0.01 94 1003.7
20260831033109 58 97 2.0 8.0 0.00 0.36 0.01 94 1003.7
20260831032533 58 127 3.0 8.0 0.00 0.36 0.01 94 1003.7
20260831032035 58 76 3.0 7.0 0.00 0.36 0.01 94 1003.7
20260831031553 58 156 4.0 7.0 0.00 0.36 0.01 94 1003.8
20260831031031 58 117 4.0 8.0 0.00 0.36 0.01 94 1003.8
20260831030531 58 128 2.0 8.0 0.00 0.36 0.01 94 1003.9
20260831030049 58 118 3.0 7.0 0.00 0.36 0.01 94 1003.9
20260831025533 58 124 3.0 7.0 0.00 0.37 0.01 94 1004.0
20260831025033 58 154 3.0 7.0 0.00 0.37 0.01 94 1003.9
20260831024553 58 152 3.0 8.0 0.00 0.37 0.01 94 1003.9
20260831024032 58 177 2.0 10.0 0.00 0.37 0.01 94 1004.0
20260831023534 58 155 4.0 10.0 0.00 0.37 0.01 94 1004.0
20260831023053 58 143 3.0 9.0 0.00 0.37 0.01 94 1004.0
20260831022531 58 139 3.0 9.0 0.00 0.37 0.01 94 1004.0
20260831022033 58 179 3.0 9.0 0.01 0.37 0.01 94 1004.0
20260831021548 58 159 2.0 8.0 0.00 0.36 0.00 94 1004.0
20260831021033 58 149 3.0 7.0 0.00 0.36 0.00 94 1004.1
20260831020534 58 100 2.0 5.0 0.00 0.36 0.00 94 1004.1
20260831020044 58 138 2.0 4.0 0.00 0.36 0.00 94 1004.2
20260831015536 58 134 1.0 5.0 0.00 0.36 0.00 94 1004.2
20260831015032 58 146 1.0 5.0 0.00 0.36 0.00 94 1004.2
20260831014542 58 139 0.0 4.0 0.00 0.36 0.00 94 1004.2
20260831014032 58 139 1.0 4.0 0.00 0.36 0.00 94 1004.2
20260831013533 58 155 0.0 5.0 0.00 0.36 0.00 93 1004.3
20260831013056 58 216 2.0 6.0 0.00 0.36 0.00 93 1004.3
20260831012531 58 145 1.0 7.0 0.00 0.36 0.00 93 1004.4
20260831012031 58 157 1.0 7.0 0.00 0.35 0.00 93 1004.4
20260831011547 58 141 2.0 7.0 0.00 0.35 0.00 93 1004.3
20260831011029 58 152 2.0 8.0 0.00 0.35 0.00 93 1004.4
20260831010529 58 173 1.0 9.0 0.00 0.35 0.00 93 1004.5
20260831010058 58 171 3.0 9.0 0.00 0.35 0.00 93 1004.5
20260831005531 58 153 2.0 7.0 0.00 0.40 0.00 93 1004.5
20260831005030 58 140 3.0 9.0 0.00 0.40 0.00 93 1004.5
20260831004553 58 153 3.0 9.0 0.00 0.40 0.00 93 1004.6
20260831004030 58 197 3.0 9.0 0.00 0.40 0.00 93 1004.7
20260831003535 58 170 3.0 10.0 0.00 0.40 0.00 93 1004.8
20260831003103 58 211 4.0 10.0 0.00 0.40 0.00 93 1004.7
20260831002530 58 183 3.0 9.0 0.00 0.40 0.00 93 1004.7
20260831002033 58 167 3.0 9.0 0.00 0.40 0.00 93 1004.8
20260831001550 58 182 4.0 9.0 0.00 0.40 0.00 93 1004.7
20260831001030 58 141 3.0 9.0 0.00 0.40 0.00 93 1004.8
20260831000530 58 169 3.0 8.0 0.00 0.40 0.00 93 1004.8
20260831000044 58 201 3.0 8.0 0.00 0.40 0.00 94 1004.9
20260830235530 57 164 3.0 10.0 0.00 0.44 0.00 93 1004.9
20260830235033 57 180 4.0 10.0 0.00 0.44 0.00 94 1004.9
20260830234552 57 209 5.0 10.0 0.00 0.44 0.00 94 1005.0
20260830234032 57 193 4.0 9.0 0.00 0.44 0.00 94 1004.9
20260830233536 57 139 4.0 11.0 0.00 0.44 0.00 94 1005.0
20260830233049 57 208 4.0 11.0 0.00 0.44 0.00 94 1005.0
20260830232533 57 193 3.0 10.0 0.00 0.44 0.00 94 1005.1
20260830232030 57 185 2.0 11.0 0.00 0.44 0.00 93 1005.0
20260830231602 57 0 3.0 11.0 0.00 0.44 0.00 94 1005.0
20260830231033 57 174 3.0 11.0 0.00 0.44 0.00 93 1005.0
20260830230533 57 189 4.0 11.0 0.00 0.44 0.00 93 1004.8
20260830230053 57 185 3.0 9.0 0.00 0.44 0.00 93 1004.9
20260830225531 57 176 2.0 9.0 0.00 0.44 0.00 93 1004.9
20260830225031 57 182 3.0 9.0 0.00 0.44 0.00 93 1004.9
20260830224555 57 160 3.0 10.0 0.00 0.44 0.00 93 1005.0
20260830224039 57 198 3.0 11.0 0.00 0.44 0.00 93 1005.0
20260830223532 57 174 3.0 11.0 0.00 0.44 0.00 93 1005.0
20260830223047 57 190 3.0 9.0 0.00 0.44 0.00 93 1005.0
20260830222532 57 201 3.0 8.0 0.00 0.44 0.00 93 1005.0
20260830222039 57 190 3.0 8.0 0.00 0.44 0.00 93 1005.1
20260830221542 57 182 2.0 7.0 0.00 0.44 0.00 92 1005.0
20260830221032 57 184 3.0 7.0 0.00 0.44 0.00 92 1005.1
20260830220532 57 166 2.0 8.0 0.00 0.44 0.00 92 1005.0
20260830220056 57 201 2.0 9.0 0.00 0.44 0.00 92 1005.1
20260830215536 57 194 3.0 9.0 0.00 0.44 0.00 92 1005.0
20260830215032 57 174 2.0 10.0 0.00 0.44 0.00 91 1005.1
20260830214548 57 170 3.0 10.0 0.00 0.44 0.00 91 1005.0